STARLINK-1292, 45394

Orbit data source: Space-Track

STARLINK-1292, 45394 is a payload satellite owned by SpaceX/Seattle (US) in LEO that was launched on Wed, 18 Mar 2020 UTC via an FALCON 9 launch vehicle from the Air Force Eastern Test Range (AFETR). Payload-class satellites include a variety of spacecraft equipped with specific instruments for various scientific and technological missions. These include communications satellites like Starlink; space stations such as the ISS; scientific satellites like the Hubble; Earth observation satellites from companies like Planet Labs, Umbra, and HawkEye 360; GPS; miniature CubeSats for education and research; and military/defense satellites.

Loading next visibility...
Identifier
45394, 2020-019AL
Orbit
LEO
Last TLE update
8 hours ago
Origin
Manufacturer
SpaceX/Seattle
Mission
Operational Commercial Communications
Bus & Motor
STARLINK, Unknown motor
Mass
260 kg wet, ~248 kg dry
Launch date (UTC)
2020-03-18 (5 years ago)
Launch vehicle
FALCON 9
Launch site
Air Force Eastern Test Range (AFETR)
Object type
Payload
Rocket body
Debris
Shape & HBR
Box + 1 Pan, 8.86 m
Radar Cross Section
13.562 m², Large (>1 m²)

Expand to show TLE details & history

TLE from 8 hours ago
0 STARLINK-1292
1 45394U 20019AL  25182.91667824  .00100678  00000-0  57251-2 0  9992
2 45394  53.0520 192.1981 0000876 106.4835  65.1028 15.12047445  5843
Epoch: 2025-07-01T22:00Z
TLE epoch observation values (Epoch: 2025-07-01T22:00:00.999Z)
Latitude
6.67016°
Longitude
116.97031°
Altitude
529.964 km
Speed
7.6 km/s
True Right ascension
00h 28m 43s
True Declination
6° 37' 45"
Sunlit
Object was in daylight at epoch
Visualization orbit readout
Latitude
23.56177°
Longitude
101.47113°
Altitude
530.111 km
Speed
7.601 km/s
Apparent Right ascension
01h 59m 29s
Apparent Declination
-9° 29' 48"
Sunlit
Object is in daylight
Visualization observer readout
Local Sidereal Time
17:31:51
Azimuth
72.181° E
Elevation
-34.065°
Doppler factor
1
Orbital elements
Apogee altitude
530.834 km
Perigee altitude
529.623 km
Semi-major axis
6,908.366 km
Eccentricity
0.00009
Inclination
53.052°
RAAN
192.1981°
Arg. of periapsis
106.4835°
True anomaly
Unknown
Mean anomaly
65.1028°
Eccentric anomaly
Unknown
Mean motion
3.7799 °/min
Orbital period
95.24 mins
BSTAR
0.0057251
Loading maneuver chart data...
Loading SW <> Apogee altitude chart data...
Loading historical data...
Loading historical data...
Loading historical data...
Loading historical data...
Loading historical data...
Loading historical data...
Loading historical data...

STARLINK-1292 Visibility forecast

Observer location: undefined°, undefined°

Span
Click to sort rows by Start time (UTC) header in descending order
Start Az.
Max El. time (UTC)
Max El. Az.
Max El.
End time (UTC)
End Az.
4 mins2025-07-02 08:49:13.574Z358.024° N2025-07-02 08:50:13.574Z19.51° NNE20.713°2025-07-02 08:53:13.574Z72.97° E
6 mins2025-07-02 10:27:13.574Z305.338° NW2025-07-02 10:30:13.574Z171.939° S43.209°2025-07-02 10:33:13.574Z137.036° SSE
6 mins2025-07-03 03:35:13.574Z246.68° WSW2025-07-03 03:38:13.574Z348.473° N40.336°2025-07-03 03:41:13.574Z42.566° NE
4 mins2025-07-03 05:16:13.574Z316.378° NNW2025-07-03 05:17:13.574Z333.784° NNW16.149°2025-07-03 05:20:13.574Z23.374° NE
|